Find Starlink 30830

NORAD ID: 58194 Int'l Des: 2023-167 Owner: SPXS Country: US Constellation: starlink operational
LEOCIRCULAR

实时位置

正在加载3D地球...

关于 Starlink 30830

正在加载描述...

即将过境

Passes for default location (London). Set your location on the main map for personalized predictions.

高度历史

Loading altitude history...

两行轨道根数

1 58194U 23167V 26125.47528015 .00000503 00000-0 27803-4 0 9996
2 58194 43.0030 182.3436 0001067 267.8145 92.2585 15.27583215139679
Epoch: May 5, 2026 • Age: 5 hours

当前状态

高度 482.3 km
速度 7.63 km/s
星下点 9.06°N, 124.91°W
发射日期 Oct 30, 2023
运行时间 2.5 years
类型 internet

技术详情

分类 Payload
质量 730.00 kg
干质量 700.00 kg
总质量 730.00 kg
长度 0.30 m
直径 4.10 m
跨度 29.00 m
形状 Box + pan
制造商 SPXS
平台类型 Starlink V2M
阶段状态 In Orbit
所有者/国家 SPXS/US

Most Searched